TimeAKST,TemperatureF,Dew PointF,Humidity,Sea Level PressureIn,VisibilityMPH,Wind Direction,Wind SpeedMPH,Gust SpeedMPH,PrecipitationIn,Events,Conditions,WindDirDegrees,DateUTC
12:16 AM,28.4,15.8,59,30.01,10.0,East,6.9,-,N/A,,Mostly Cloudy,100,2013-01-09 09:16:00
12:36 AM,30.2,14.0,51,30.00,10.0,SE,5.8,-,N/A,,Overcast,140,2013-01-09 09:36:00
12:56 AM,33.8,21.2,60,29.99,10.0,SSE,12.7,-,N/A,,Mostly Cloudy,150,2013-01-09 09:56:00
1:16 AM,33.8,23.0,65,29.99,10.0,SE,11.5,-,N/A,,Overcast,130,2013-01-09 10:16:00
1:36 AM,30.2,19.4,64,29.98,10.0,ESE,8.1,-,N/A,,Overcast,110,2013-01-09 10:36:00
1:56 AM,33.8,21.2,60,29.96,10.0,ESE,10.4,-,N/A,,Overcast,120,2013-01-09 10:56:00
2:16 AM,35.6,24.8,65,29.94,10.0,SE,15.0,-,N/A,,Overcast,140,2013-01-09 11:16:00
2:36 AM,37.4,26.6,65,29.94,10.0,SE,19.6,-,N/A,,Overcast,140,2013-01-09 11:36:00
3:16 AM,37.4,26.6,65,29.95,10.0,SE,24.2,-,N/A,,Overcast,140,2013-01-09 12:16:00
3:36 AM,37.4,26.6,65,29.93,10.0,SE,17.3,-,N/A,,Overcast,140,2013-01-09 12:36:00
3:56 AM,37.4,28.4,70,29.92,10.0,SSE,17.3,-,N/A,,Partly Cloudy,150,2013-01-09 12:56:00
4:16 AM,37.4,28.4,70,29.92,10.0,SSE,21.9,-,N/A,,Clear,150,2013-01-09 13:16:00
4:36 AM,37.4,26.6,65,29.91,10.0,SSE,26.5,-,N/A,,Clear,150,2013-01-09 13:36:00
4:56 AM,39.2,28.4,65,29.90,10.0,SE,24.2,31.1,N/A,,Clear,140,2013-01-09 13:56:00
5:16 AM,39.2,30.2,70,29.89,10.0,SE,24.2,33.4,N/A,,Clear,140,2013-01-09 14:16:00
5:36 AM,37.4,28.4,70,29.87,10.0,SE,24.2,29.9,N/A,,Clear,140,2013-01-09 14:36:00
5:56 AM,37.4,28.4,70,29.88,10.0,SE,24.2,28.8,N/A,,Clear,140,2013-01-09 14:56:00
6:16 AM,37.4,30.2,75,29.87,10.0,SE,19.6,-,N/A,,Clear,140,2013-01-09 15:16:00
6:36 AM,37.4,30.2,75,29.86,10.0,SE,18.4,-,N/A,,Scattered Clouds,140,2013-01-09 15:36:00
6:56 AM,37.4,28.4,70,29.85,10.0,SE,16.1,-,N/A,,Mostly Cloudy,130,2013-01-09 15:56:00
7:16 AM,37.4,28.4,70,29.84,10.0,SE,20.7,-,N/A,,Overcast,140,2013-01-09 16:16:00
7:36 AM,37.4,28.4,70,29.83,10.0,SSE,20.7,-,N/A,,Mostly Cloudy,150,2013-01-09 16:36:00
7:56 AM,37.4,28.4,70,29.82,10.0,SSE,21.9,-,N/A,,Partly Cloudy,150,2013-01-09 16:56:00
8:16 AM,37.4,28.4,70,29.81,10.0,SSE,25.3,-,N/A,,Mostly Cloudy,150,2013-01-09 17:16:00
8:36 AM,37.4,28.4,70,29.80,10.0,SSE,24.2,27.6,N/A,,Mostly Cloudy,160,2013-01-09 17:36:00
8:56 AM,37.4,26.6,65,29.79,10.0,SSE,23.0,-,N/A,,Overcast,150,2013-01-09 17:56:00
9:16 AM,37.4,28.4,70,29.78,10.0,SSE,23.0,-,N/A,,Overcast,150,2013-01-09 18:16:00
9:36 AM,-9999,-9999,N/A,29.76,10.0,SSE,25.3,31.1,N/A,,Mostly Cloudy,150,2013-01-09 18:36:00
9:56 AM,-9999,-9999,N/A,29.74,10.0,SE,28.8,34.5,N/A,,Mostly Cloudy,140,2013-01-09 18:56:00
10:16 AM,-9999,-9999,N/A,29.73,10.0,SE,29.9,38.0,N/A,,Mostly Cloudy,140,2013-01-09 19:16:00
10:36 AM,-9999,-9999,N/A,29.71,10.0,SE,33.4,38.0,N/A,,Mostly Cloudy,140,2013-01-09 19:36:00
10:56 AM,-9999,-9999,N/A,29.70,10.0,SSE,34.5,40.3,N/A,,Overcast,150,2013-01-09 19:56:00
11:16 AM,-9999,-9999,N/A,29.69,10.0,SSE,33.4,40.3,N/A,,Overcast,150,2013-01-09 20:16:00
11:36 AM,-9999,-9999,N/A,29.68,10.0,SSE,34.5,41.4,N/A,,Overcast,150,2013-01-09 20:36:00
11:56 AM,-9999,-9999,N/A,29.67,10.0,SE,33.4,39.1,N/A,,Overcast,140,2013-01-09 20:56:00
12:16 PM,-9999,-9999,N/A,29.67,10.0,SE,28.8,35.7,N/A,,Mostly Cloudy,130,2013-01-09 21:16:00
12:36 PM,-9999,-9999,N/A,29.64,10.0,SSE,34.5,42.6,N/A,,Mostly Cloudy,150,2013-01-09 21:36:00
12:56 PM,-9999,-9999,N/A,29.63,10.0,SSE,34.5,42.6,N/A,,Overcast,150,2013-01-09 21:56:00
1:16 PM,-9999,-9999,N/A,29.63,10.0,SE,31.1,36.8,N/A,,Mostly Cloudy,140,2013-01-09 22:16:00
1:36 PM,-9999,-9999,N/A,29.61,10.0,SE,34.5,40.3,N/A,,Mostly Cloudy,140,2013-01-09 22:36:00
1:56 PM,39.2,28.4,65,29.62,10.0,SSE,27.6,32.2,N/A,,Mostly Cloudy,150,2013-01-09 22:56:00
2:16 PM,37.4,30.2,75,29.62,10.0,SSE,24.2,-,N/A,,Mostly Cloudy,150,2013-01-09 23:16:00
2:36 PM,-9999,-9999,N/A,29.59,10.0,SE,27.6,32.2,N/A,,Mostly Cloudy,140,2013-01-09 23:36:00
2:56 PM,-9999,-9999,N/A,29.59,10.0,SE,26.5,31.1,N/A,,Overcast,140,2013-01-09 23:56:00
3:16 PM,39.2,28.4,65,29.62,10.0,SSE,21.9,33.4,N/A,,Overcast,150,2013-01-10 00:16:00
3:36 PM,37.4,30.2,75,29.63,10.0,SSE,18.4,-,N/A,,Overcast,160,2013-01-10 00:36:00
3:56 PM,37.4,30.2,75,29.64,10.0,SSE,18.4,23.0,N/A,,Overcast,160,2013-01-10 00:56:00
4:16 PM,37.4,30.2,75,29.64,10.0,SSE,19.6,-,N/A,,Mostly Cloudy,150,2013-01-10 01:16:00
4:36 PM,37.4,28.4,70,29.65,10.0,South,15.0,-,N/A,,Mostly Cloudy,170,2013-01-10 01:36:00
4:56 PM,37.4,30.2,75,29.66,10.0,South,12.7,-,N/A,,Overcast,180,2013-01-10 01:56:00
5:16 PM,35.6,28.4,75,29.70,9.0,WSW,15.0,27.6,N/A,,Overcast,250,2013-01-10 02:16:00
5:36 PM,35.6,28.4,75,29.71,10.0,WSW,11.5,-,0.01,,Overcast,240,2013-01-10 02:36:00
5:56 PM,33.8,28.4,81,29.72,10.0,SW,8.1,-,0.02,,Overcast,230,2013-01-10 02:56:00
6:16 PM,33.8,28.4,81,29.72,10.0,SSW,8.1,-,N/A,,Overcast,200,2013-01-10 03:16:00
6:36 PM,33.8,28.4,81,29.74,10.0,South,9.2,-,N/A,,Overcast,190,2013-01-10 03:36:00
6:56 PM,33.8,28.4,81,29.74,10.0,South,9.2,-,N/A,,Overcast,190,2013-01-10 03:56:00
7:16 PM,33.8,28.4,81,29.75,10.0,South,10.4,-,N/A,,Overcast,190,2013-01-10 04:16:00
7:36 PM,33.8,28.4,81,29.76,10.0,South,10.4,-,N/A,,Overcast,190,2013-01-10 04:36:00
7:56 PM,33.8,28.4,81,29.76,10.0,South,8.1,-,N/A,,Overcast,180,2013-01-10 04:56:00
8:16 PM,33.8,28.4,81,29.78,10.0,South,9.2,-,N/A,,Overcast,190,2013-01-10 05:16:00
8:36 PM,33.8,28.4,81,29.78,10.0,South,8.1,-,N/A,,Overcast,190,2013-01-10 05:36:00
8:56 PM,33.8,28.4,81,29.80,10.0,South,9.2,-,N/A,,Overcast,190,2013-01-10 05:56:00
9:16 PM,33.8,28.4,81,29.81,10.0,South,8.1,-,N/A,,Mostly Cloudy,180,2013-01-10 06:16:00
9:36 PM,33.8,28.4,81,29.82,10.0,South,9.2,-,N/A,,Scattered Clouds,190,2013-01-10 06:36:00
9:56 PM,32.0,28.4,87,29.83,10.0,South,8.1,-,N/A,,Clear,180,2013-01-10 06:56:00
10:16 PM,33.8,26.6,75,29.84,10.0,South,8.1,-,N/A,,Clear,180,2013-01-10 07:16:00
10:36 PM,33.8,26.6,75,29.85,10.0,South,8.1,-,N/A,,Mostly Cloudy,170,2013-01-10 07:36:00
10:56 PM,30.2,24.8,80,29.85,10.0,South,8.1,-,N/A,,Scattered Clouds,170,2013-01-10 07:56:00
11:16 PM,30.2,24.8,80,29.85,10.0,South,5.8,-,N/A,,Clear,170,2013-01-10 08:16:00
11:36 PM,32.0,26.6,80,29.87,10.0,South,6.9,-,N/A,,Partly Cloudy,190,2013-01-10 08:36:00
11:56 PM,30.2,24.8,80,29.89,10.0,South,6.9,-,N/A,,Clear,180,2013-01-10 08:56:00